Possible satellite debris may have been found in Nambia
Update:The ERS 5 satellite re-entered the Earths atmosphere on the 11th November, 2011 @ 04:01 GMT ± 40 minutes.
Inclination: 84.25°Revolution Number: 56573Predicted Location: 51.3°S, 346.6°E
Update:The ERS 5 satellite is predicted to re-enter the Earths atmosphere on the 11th November, 2011 @ 03:32 GMT ± 2 hours.
ERS 5 1 00579U 63014B 11314.67025237 .24495611 00000-0 20985+0 0 5347 2 00579 084.2496 103.7050 0056458 156.0369 204.9027 15.67212588565656
Period: 94.78 minutesInclination: 84.25°Apogee: 707 kmPerigee: 309 km Revolution Number: 56575Predicted Location: 17.7°N, 14.2°E
Update:The ERS 5 satellite is predicted to re-enter the Earths atmosphere on the 11th November, 2011 @ 00:15 GMT ± 15 hours.
ERS 5 1 00579U 63014B 11314.34908151 .16515077 43316+0 21653+0 0 5299 2 00579 084.2676 103.9222 0170003 156.5465 203.0094 15.52178405565606
Period: 94.78 minutesInclination: 84.27°Apogee: 707 kmPerigee: 309 km Revolution Number: 56571Predicted Location: 42.6°N, 225.4°E
Update:The ERS 5 satellite is predicted to re-enter the Earths atmosphere on the 10th November, 2011 @ 20:31 GMT ± 24 hours.
ERS 5 1 00579U 63014B 11312.84153797 .15756716 00000-0 23260+0 0 5241 2 00579 084.2936 105.0768 0344214 164.3531 196.3046 15.05100558565378
Period: 97.19 minutesInclination: 84.29°Apogee: 930 kmPerigee: 319 km Revolution Number: 56568Predicted Location: 9°S, 106.2°E
Update:The ERS 5 satellite is predicted to re-enter the Earths atmosphere on the 11th November, 2011 @ 02:09 GMT ± 48 hours.
ERS 5 1 00579U 63014B 11311.76911888 .11349136 00000-0 21295+0 0 5183 2 00579 084.3020 105.8570 0436228 168.0350 193.1594 14.81622030565212
Period: 97.72 minutesInclination: 84.31°Apogee: 976 kmPerigee: 323 km Revolution Number: 56573Predicted Location: 10.9°S, 203.3°E
The ERS 5 satellite that was launched on the 9th May, 1963, from Point Arguello, USA, is predicted to re-enter the Earths atmosphere on the 3rd December, 2011 @ --:-- GMT ± -- hours.
ERS 5 1 00579U 63014B 11300.54172982 .02136254 00000-0 85264-1 0 5038 2 00579 084.3539 113.0993 0858717 200.4190 164.5610 13.78583269563620
Period: 103.64 minutesInclination: 84.35°Apogee: 1524 kmPerigee: 338 km Revolution Number: -Predicted Location: -